Time,TemperatureF,DewpointF,PressureIn,WindDirection,WindDirectionDegrees,WindSpeedMPH,WindSpeedGustMPH,Humidity,HourlyPrecipIn,Conditions,Clouds,dailyrainin,SoftwareType,DateUTC
2013-06-14 00:03:00,57.4,50.3,30.20,East,92,0.0,3.0,77,0.00,,---,0.00,VWS V14.01,2013-06-14 07:03:00,
2013-06-14 00:08:00,57.4,50.3,30.20,East,92,0.0,3.0,77,0.00,,---,0.00,VWS V14.01,2013-06-14 07:08:00,
2013-06-14 00:13:00,57.5,50.4,30.20,East,92,0.0,3.0,77,0.00,,---,0.00,VWS V14.01,2013-06-14 07:13:00,
2013-06-14 00:18:00,57.5,50.4,30.20,SW,217,0.0,5.0,77,0.00,,---,0.00,VWS V14.01,2013-06-14 07:18:00,
2013-06-14 00:23:00,57.5,50.4,30.20,SW,217,0.0,5.0,77,0.00,,---,0.00,VWS V14.01,2013-06-14 07:23:00,
2013-06-14 00:28:00,57.5,50.4,30.20,SW,217,0.0,5.0,77,0.00,,---,0.00,VWS V14.01,2013-06-14 07:28:00,
2013-06-14 00:33:00,57.3,50.5,30.20,SSW,203,0.0,6.0,78,0.00,,---,0.00,VWS V14.01,2013-06-14 07:33:00,
2013-06-14 00:38:00,57.1,50.3,30.21,SSE,154,1.0,6.0,78,0.00,,---,0.00,VWS V14.01,2013-06-14 07:38:00,
2013-06-14 00:44:00,56.9,50.1,30.21,South,180,0.0,6.0,78,0.00,,---,0.00,VWS V14.01,2013-06-14 07:44:00,
2013-06-14 00:49:00,56.9,50.1,30.20,WSW,239,0.0,6.0,78,0.00,,---,0.00,VWS V14.01,2013-06-14 07:49:00,
2013-06-14 00:54:00,56.8,50.0,30.21,South,172,0.0,6.0,78,0.00,,---,0.00,VWS V14.01,2013-06-14 07:54:00,
2013-06-14 00:59:00,56.7,49.9,30.21,South,187,0.0,6.0,78,0.00,,---,0.00,VWS V14.01,2013-06-14 07:59:00,
2013-06-14 01:04:00,56.6,49.8,30.21,South,178,0.0,3.0,78,0.00,,---,0.00,VWS V14.01,2013-06-14 08:04:00,
2013-06-14 01:09:00,56.4,49.6,30.21,West,263,0.0,3.0,78,0.00,,---,0.00,VWS V14.01,2013-06-14 08:09:00,
2013-06-14 01:14:00,56.4,49.6,30.21,WSW,240,0.0,3.0,78,0.00,,---,0.00,VWS V14.01,2013-06-14 08:14:00,
2013-06-14 01:19:00,56.2,49.4,30.21,SE,146,0.0,6.0,78,0.00,,---,0.00,VWS V14.01,2013-06-14 08:19:00,
2013-06-14 01:24:00,56.1,49.7,30.21,SSE,167,0.0,6.0,79,0.00,,---,0.00,VWS V14.01,2013-06-14 08:24:00,
2013-06-14 01:29:00,56.0,49.6,30.21,SE,146,0.0,6.0,79,0.00,,---,0.00,VWS V14.01,2013-06-14 08:29:00,
2013-06-14 01:34:00,55.9,49.5,30.21,South,175,0.0,4.0,79,0.00,,---,0.00,VWS V14.01,2013-06-14 08:34:00,
2013-06-14 01:39:00,55.7,49.3,30.21,SSE,150,0.0,4.0,79,0.00,,---,0.00,VWS V14.01,2013-06-14 08:39:00,
2013-06-14 01:44:00,55.5,49.1,30.21,SSW,212,0.0,5.0,79,0.00,,---,0.00,VWS V14.01,2013-06-14 08:44:00,
2013-06-14 01:49:00,55.4,49.0,30.21,SSE,147,0.0,5.0,79,0.00,,---,0.00,VWS V14.01,2013-06-14 08:49:00,
2013-06-14 01:54:00,55.3,48.9,30.21,SSE,148,0.0,5.0,79,0.00,,---,0.00,VWS V14.01,2013-06-14 08:54:00,
2013-06-14 01:59:00,55.3,49.2,30.21,West,260,0.0,5.0,80,0.00,,---,0.00,VWS V14.01,2013-06-14 08:59:00,
2013-06-14 02:04:00,55.3,49.2,30.20,West,260,0.0,1.0,80,0.00,,---,0.00,VWS V14.01,2013-06-14 09:04:00,
2013-06-14 02:09:00,55.3,49.2,30.20,West,259,0.0,1.0,80,0.00,,---,0.00,VWS V14.01,2013-06-14 09:09:00,
2013-06-14 02:14:00,55.3,49.2,30.20,WSW,253,0.0,2.0,80,0.00,,---,0.00,VWS V14.01,2013-06-14 09:14:00,
2013-06-14 02:19:00,55.3,49.2,30.20,SSW,203,0.0,3.0,80,0.00,,---,0.00,VWS V14.01,2013-06-14 09:19:00,
2013-06-14 02:24:00,55.1,49.0,30.20,SW,215,0.0,4.0,80,0.00,,---,0.00,VWS V14.01,2013-06-14 09:24:00,
2013-06-14 02:30:00,55.1,49.0,30.20,SSE,147,2.0,4.0,80,0.00,,---,0.00,VWS V14.01,2013-06-14 09:30:00,
2013-06-14 02:35:00,55.0,49.0,30.20,SW,219,0.0,6.0,80,0.00,,---,0.00,VWS V14.01,2013-06-14 09:35:00,
2013-06-14 02:40:00,55.0,49.0,30.20,SSE,159,0.0,6.0,80,0.00,,---,0.00,VWS V14.01,2013-06-14 09:40:00,
2013-06-14 02:45:00,54.8,48.8,30.20,SSE,152,4.0,6.0,80,0.00,,---,0.00,VWS V14.01,2013-06-14 09:45:00,
2013-06-14 02:50:00,54.7,49.0,30.20,SSW,206,1.0,6.0,81,0.00,,---,0.00,VWS V14.01,2013-06-14 09:50:00,
2013-06-14 02:55:00,54.7,49.0,30.20,SSW,200,0.0,7.0,81,0.00,,---,0.00,VWS V14.01,2013-06-14 09:55:00,
2013-06-14 03:00:00,54.7,48.7,30.20,SSE,150,0.0,7.0,80,0.00,,---,0.00,VWS V14.01,2013-06-14 10:00:00,
2013-06-14 03:05:00,54.6,48.9,30.20,South,179,0.0,4.0,81,0.00,,---,0.00,VWS V14.01,2013-06-14 10:05:00,
2013-06-14 03:10:00,54.6,48.9,30.20,SE,140,1.0,6.0,81,0.00,,---,0.00,VWS V14.01,2013-06-14 10:10:00,
2013-06-14 03:15:00,54.6,48.6,30.20,SSE,152,0.0,7.0,80,0.00,,---,0.00,VWS V14.01,2013-06-14 10:15:00,
2013-06-14 03:20:00,54.5,48.5,30.20,SSE,159,0.0,7.0,80,0.00,,---,0.00,VWS V14.01,2013-06-14 10:20:00,
2013-06-14 03:25:00,54.5,48.5,30.20,SSE,154,0.0,7.0,80,0.00,,---,0.00,VWS V14.01,2013-06-14 10:25:00,
2013-06-14 03:30:00,54.5,48.5,30.20,SSE,151,5.0,10.0,80,0.00,,---,0.00,VWS V14.01,2013-06-14 10:30:00,
2013-06-14 03:35:00,54.4,48.4,30.20,SSE,165,3.0,6.0,80,0.00,,---,0.00,VWS V14.01,2013-06-14 10:35:00,
2013-06-14 03:40:00,54.4,48.0,30.20,SSE,159,0.0,10.0,79,0.00,,---,0.00,VWS V14.01,2013-06-14 10:40:00,
2013-06-14 03:45:00,54.3,47.9,30.20,SE,134,2.0,10.0,79,0.00,,---,0.00,VWS V14.01,2013-06-14 10:45:00,
2013-06-14 03:50:00,54.4,48.0,30.20,SSE,163,4.0,10.0,79,0.00,,---,0.00,VWS V14.01,2013-06-14 10:50:00,
2013-06-14 03:55:00,54.3,47.9,30.20,SSW,203,1.0,10.0,79,0.00,,---,0.00,VWS V14.01,2013-06-14 10:55:00,
2013-06-14 04:00:00,54.2,47.8,30.20,SSE,150,0.0,0.0,79,0.00,,---,0.00,VWS V14.01,2013-06-14 11:00:00,
2013-06-14 04:05:00,54.2,47.8,30.20,SSW,198,0.0,4.0,79,0.00,,---,0.00,VWS V14.01,2013-06-14 11:05:00,
2013-06-14 04:10:00,54.2,47.8,30.20,SW,215,1.0,5.0,79,0.00,,---,0.00,VWS V14.01,2013-06-14 11:10:00,
2013-06-14 04:16:00,54.2,47.8,30.20,East,94,0.0,5.0,79,0.00,,---,0.00,VWS V14.01,2013-06-14 11:16:00,
2013-06-14 04:21:00,54.2,47.5,30.20,SSE,162,0.0,8.0,78,0.00,,---,0.00,VWS V14.01,2013-06-14 11:21:00,
2013-06-14 04:26:00,54.2,47.8,30.20,South,169,5.0,8.0,79,0.00,,---,0.00,VWS V14.01,2013-06-14 11:26:00,
2013-06-14 04:31:00,54.2,47.5,30.20,SSE,159,2.0,3.0,78,0.00,,---,0.00,VWS V14.01,2013-06-14 11:31:00,
2013-06-14 04:36:00,54.2,47.5,30.20,South,175,2.0,10.0,78,0.00,,---,0.00,VWS V14.01,2013-06-14 11:36:00,
2013-06-14 04:41:00,54.2,47.5,30.20,South,178,3.0,12.0,78,0.00,,---,0.00,VWS V14.01,2013-06-14 11:41:00,
2013-06-14 04:46:00,54.2,47.8,30.20,East,99,2.0,12.0,79,0.00,,---,0.00,VWS V14.01,2013-06-14 11:46:00,
2013-06-14 04:51:00,54.2,47.8,30.20,SSE,159,0.0,12.0,79,0.00,,---,0.00,VWS V14.01,2013-06-14 11:51:00,
2013-06-14 04:56:00,54.2,47.8,30.20,SSE,165,0.0,12.0,79,0.00,,---,0.00,VWS V14.01,2013-06-14 11:56:00,
2013-06-14 05:01:00,54.2,47.8,30.20,South,169,2.0,3.0,79,0.00,,---,0.00,VWS V14.01,2013-06-14 12:01:00,
2013-06-14 05:06:00,54.3,47.9,30.20,WSW,246,0.0,6.0,79,0.00,,---,0.00,VWS V14.01,2013-06-14 12:06:00,
2013-06-14 05:11:00,54.3,47.9,30.20,SW,219,0.0,6.0,79,0.00,,---,0.00,VWS V14.01,2013-06-14 12:11:00,
2013-06-14 05:16:00,54.3,47.9,30.20,WSW,252,0.0,9.0,79,0.00,,---,0.00,VWS V14.01,2013-06-14 12:16:00,
2013-06-14 05:21:00,54.3,47.9,30.20,South,180,0.0,9.0,79,0.00,,---,0.00,VWS V14.01,2013-06-14 12:21:00,
2013-06-14 05:26:00,54.3,47.9,30.20,SSW,205,0.0,9.0,79,0.00,,---,0.00,VWS V14.01,2013-06-14 12:26:00,
2013-06-14 05:31:00,54.3,47.9,30.20,West,260,2.0,4.0,79,0.00,,---,0.00,VWS V14.01,2013-06-14 12:31:00,
2013-06-14 05:36:00,54.3,47.9,30.21,SSW,213,0.0,6.0,79,0.00,,---,0.00,VWS V14.01,2013-06-14 12:36:00,
2013-06-14 05:41:00,54.3,47.9,30.21,SSE,156,1.0,11.0,79,0.00,,---,0.00,VWS V14.01,2013-06-14 12:41:00,
2013-06-14 05:46:00,54.3,47.9,30.21,South,191,0.0,11.0,79,0.00,,---,0.00,VWS V14.01,2013-06-14 12:46:00,
2013-06-14 05:51:00,54.3,47.9,30.21,West,262,1.0,12.0,79,0.00,,---,0.00,VWS V14.01,2013-06-14 12:51:00,
2013-06-14 05:57:00,54.3,47.9,30.21,SE,140,4.0,12.0,79,0.00,,---,0.00,VWS V14.01,2013-06-14 12:57:00,
2013-06-14 06:02:00,54.3,47.9,30.21,SW,225,0.0,4.0,79,0.00,,---,0.00,VWS V14.01,2013-06-14 13:02:00,
2013-06-14 06:07:00,54.4,48.0,30.21,SSE,155,0.0,5.0,79,0.00,,---,0.00,VWS V14.01,2013-06-14 13:07:00,
2013-06-14 06:12:00,54.4,48.0,30.21,SSW,198,0.0,5.0,79,0.00,,---,0.00,VWS V14.01,2013-06-14 13:12:00,
2013-06-14 06:17:00,54.5,48.1,30.21,SSE,160,0.0,5.0,79,0.00,,---,0.00,VWS V14.01,2013-06-14 13:17:00,
2013-06-14 06:22:00,54.5,48.1,30.21,West,280,1.0,10.0,79,0.00,,---,0.00,VWS V14.01,2013-06-14 13:22:00,
2013-06-14 06:27:00,54.5,48.1,30.21,SSE,161,2.0,10.0,79,0.00,,---,0.00,VWS V14.01,2013-06-14 13:27:00,
2013-06-14 06:32:00,54.6,48.2,30.21,SE,138,3.0,12.0,79,0.00,,---,0.00,VWS V14.01,2013-06-14 13:32:00,
2013-06-14 06:37:00,54.6,48.2,30.21,SSE,161,0.0,12.0,79,0.00,,---,0.00,VWS V14.01,2013-06-14 13:37:00,
2013-06-14 06:42:00,54.6,48.2,30.21,SSE,159,2.0,12.0,79,0.00,,---,0.00,VWS V14.01,2013-06-14 13:42:00,
2013-06-14 06:47:00,54.6,48.2,30.21,South,180,0.0,12.0,79,0.00,,---,0.00,VWS V14.01,2013-06-14 13:47:00,
2013-06-14 06:52:00,54.6,48.2,30.21,South,182,0.0,12.0,79,0.00,,---,0.00,VWS V14.01,2013-06-14 13:52:00,
2013-06-14 06:57:00,54.7,48.3,30.21,South,184,0.0,12.0,79,0.00,,---,0.00,VWS V14.01,2013-06-14 13:57:00,
2013-06-14 07:02:00,54.7,48.3,30.21,SE,146,0.0,4.0,79,0.00,,---,0.00,VWS V14.01,2013-06-14 14:02:00,
2013-06-14 07:07:00,54.7,48.3,30.21,SE,141,2.0,6.0,79,0.00,,---,0.00,VWS V14.01,2013-06-14 14:07:00,
2013-06-14 07:12:00,54.7,48.3,30.21,SSW,209,0.0,6.0,79,0.00,,---,0.00,VWS V14.01,2013-06-14 14:12:00,
2013-06-14 07:17:00,54.8,48.4,30.21,WSW,239,0.0,6.0,79,0.00,,---,0.00,VWS V14.01,2013-06-14 14:17:00,
2013-06-14 07:22:00,54.9,48.5,30.21,SSE,155,0.0,6.0,79,0.00,,---,0.00,VWS V14.01,2013-06-14 14:22:00,
2013-06-14 07:28:00,55.0,48.3,30.21,SSE,148,0.0,7.0,78,0.00,,---,0.00,VWS V14.01,2013-06-14 14:28:00,
2013-06-14 07:33:00,55.0,48.3,30.21,SSE,155,2.0,4.0,78,0.00,,---,0.00,VWS V14.01,2013-06-14 14:33:00,
2013-06-14 07:38:00,55.0,48.3,30.21,SSE,153,0.0,6.0,78,0.00,,---,0.00,VWS V14.01,2013-06-14 14:38:00,
2013-06-14 07:43:00,55.0,48.6,30.21,SE,138,0.0,7.0,79,0.00,,---,0.00,VWS V14.01,2013-06-14 14:43:00,
2013-06-14 07:48:00,55.0,48.6,30.21,South,169,0.0,7.0,79,0.00,,---,0.00,VWS V14.01,2013-06-14 14:48:00,
2013-06-14 07:53:00,55.0,48.3,30.21,South,170,3.0,7.0,78,0.00,,---,0.00,VWS V14.01,2013-06-14 14:53:00,
2013-06-14 07:58:00,54.9,48.5,30.21,SSW,198,0.0,7.0,79,0.00,,---,0.00,VWS V14.01,2013-06-14 14:58:00,
2013-06-14 08:03:00,54.9,48.5,30.21,SSE,167,1.0,5.0,79,0.00,,---,0.00,VWS V14.01,2013-06-14 15:03:00,
2013-06-14 08:08:00,54.9,48.5,30.21,SW,214,0.0,5.0,79,0.00,,---,0.00,VWS V14.01,2013-06-14 15:08:00,
2013-06-14 08:13:00,55.0,48.6,30.21,SSE,160,0.0,6.0,79,0.00,,---,0.00,VWS V14.01,2013-06-14 15:13:00,
2013-06-14 08:18:00,55.1,48.7,30.21,ESE,102,0.0,6.0,79,0.00,,---,0.00,VWS V14.01,2013-06-14 15:18:00,
2013-06-14 08:23:00,55.2,49.2,30.21,WSW,238,0.0,6.0,80,0.00,,---,0.00,VWS V14.01,2013-06-14 15:23:00,
2013-06-14 08:28:00,55.4,49.0,30.22,SW,224,0.0,6.0,79,0.00,,---,0.00,VWS V14.01,2013-06-14 15:28:00,
2013-06-14 08:33:00,55.4,49.0,30.22,SW,232,0.0,8.0,79,0.00,,---,0.00,VWS V14.01,2013-06-14 15:33:00,
2013-06-14 08:38:00,55.4,49.0,30.21,SSE,155,0.0,8.0,79,0.00,,---,0.00,VWS V14.01,2013-06-14 15:38:00,
2013-06-14 08:43:00,55.4,49.3,30.21,SSE,148,0.0,8.0,80,0.00,,---,0.00,VWS V14.01,2013-06-14 15:43:00,
2013-06-14 08:48:00,55.5,49.4,30.21,South,180,0.0,8.0,80,0.00,,---,0.00,VWS V14.01,2013-06-14 15:48:00,
2013-06-14 08:53:00,55.8,49.4,30.21,SW,229,3.0,8.0,79,0.00,,---,0.00,VWS V14.01,2013-06-14 15:53:00,
2013-06-14 08:58:00,55.9,49.5,30.21,SSE,157,0.0,8.0,79,0.00,,---,0.00,VWS V14.01,2013-06-14 15:58:00,
2013-06-14 09:03:00,56.0,49.6,30.21,SSW,211,0.0,6.0,79,0.00,,---,0.00,VWS V14.01,2013-06-14 16:03:00,
2013-06-14 09:09:00,56.2,49.8,30.21,SW,234,1.0,6.0,79,0.00,,---,0.00,VWS V14.01,2013-06-14 16:09:00,
2013-06-14 09:14:00,56.3,49.9,30.21,SW,229,0.0,7.0,79,0.00,,---,0.00,VWS V14.01,2013-06-14 16:14:00,
2013-06-14 09:19:00,56.6,50.2,30.21,SSE,164,2.0,7.0,79,0.00,,---,0.00,VWS V14.01,2013-06-14 16:19:00,
2013-06-14 09:24:00,56.5,49.7,30.21,NW,311,0.0,7.0,78,0.00,,---,0.00,VWS V14.01,2013-06-14 16:24:00,
2013-06-14 09:29:00,56.7,49.9,30.21,SSW,192,0.0,7.0,78,0.00,,---,0.00,VWS V14.01,2013-06-14 16:29:00,
2013-06-14 09:34:00,56.9,49.8,30.21,SSW,205,4.0,12.0,77,0.00,,---,0.00,VWS V14.01,2013-06-14 16:34:00,
2013-06-14 09:39:00,56.8,50.0,30.21,SW,234,0.0,12.0,78,0.00,,---,0.00,VWS V14.01,2013-06-14 16:39:00,
2013-06-14 09:44:00,57.0,49.9,30.21,SE,130,5.0,12.0,77,0.00,,---,0.00,VWS V14.01,2013-06-14 16:44:00,
2013-06-14 09:49:00,56.8,49.7,30.21,ESE,118,0.0,12.0,77,0.00,,---,0.00,VWS V14.01,2013-06-14 16:49:00,
2013-06-14 09:54:00,56.9,49.8,30.21,SW,227,0.0,12.0,77,0.00,,---,0.00,VWS V14.01,2013-06-14 16:54:00,
2013-06-14 09:59:00,57.1,50.0,30.21,WSW,248,6.0,12.0,77,0.00,,---,0.00,VWS V14.01,2013-06-14 16:59:00,
2013-06-14 10:04:00,57.1,50.0,30.21,South,181,4.0,7.0,77,0.00,,---,0.00,VWS V14.01,2013-06-14 17:04:00,
2013-06-14 10:09:00,56.6,49.5,30.21,SW,221,5.0,9.0,77,0.00,,---,0.00,VWS V14.01,2013-06-14 17:09:00,
2013-06-14 10:14:00,56.4,49.6,30.21,WSW,240,1.0,9.0,78,0.00,,---,0.00,VWS V14.01,2013-06-14 17:14:00,
2013-06-14 10:19:00,56.2,49.4,30.21,WSW,240,3.0,9.0,78,0.00,,---,0.00,VWS V14.01,2013-06-14 17:19:00,
2013-06-14 10:24:00,56.1,49.3,30.21,WSW,247,0.0,9.0,78,0.00,,---,0.00,VWS V14.01,2013-06-14 17:24:00,
2013-06-14 10:29:00,56.2,49.4,30.21,SW,219,2.0,9.0,78,0.00,,---,0.00,VWS V14.01,2013-06-14 17:29:00,
2013-06-14 10:34:00,56.6,49.8,30.21,SW,223,0.0,4.0,78,0.00,,---,0.00,VWS V14.01,2013-06-14 17:34:00,
2013-06-14 10:39:00,56.9,49.4,30.21,SW,226,2.0,7.0,76,0.00,,---,0.00,VWS V14.01,2013-06-14 17:39:00,
2013-06-14 10:45:00,57.1,49.6,30.21,SW,226,1.0,8.0,76,0.00,,---,0.00,VWS V14.01,2013-06-14 17:45:00,
2013-06-14 10:50:00,57.5,50.0,30.21,WSW,256,0.0,8.0,76,0.00,,---,0.00,VWS V14.01,2013-06-14 17:50:00,
2013-06-14 10:55:00,57.9,50.0,30.21,SSW,202,3.0,8.0,75,0.00,,---,0.00,VWS V14.01,2013-06-14 17:55:00,
2013-06-14 11:00:00,58.0,50.1,30.21,SW,226,0.0,8.0,75,0.00,,---,0.00,VWS V14.01,2013-06-14 18:00:00,
2013-06-14 11:05:00,58.2,49.6,30.21,SW,224,4.0,8.0,73,0.00,,---,0.00,VWS V14.01,2013-06-14 18:05:00,
2013-06-14 11:10:00,58.2,49.6,30.21,WSW,242,6.0,8.0,73,0.00,,---,0.00,VWS V14.01,2013-06-14 18:10:00,
2013-06-14 11:15:00,58.5,49.9,30.21,WSW,240,4.0,8.0,73,0.00,,---,0.00,VWS V14.01,2013-06-14 18:15:00,
2013-06-14 11:20:00,58.5,49.5,30.21,SW,236,0.0,8.0,72,0.00,,---,0.00,VWS V14.01,2013-06-14 18:20:00,
2013-06-14 11:25:00,59.0,50.4,30.21,SW,236,0.0,8.0,73,0.00,,---,0.00,VWS V14.01,2013-06-14 18:25:00,
2013-06-14 11:30:00,59.3,49.9,30.21,SSE,160,0.0,8.0,71,0.00,,---,0.00,VWS V14.01,2013-06-14 18:30:00,
2013-06-14 11:35:00,59.9,49.7,30.21,South,183,2.0,8.0,69,0.00,,---,0.00,VWS V14.01,2013-06-14 18:35:00,
2013-06-14 11:40:00,60.2,50.0,30.21,WSW,240,0.0,8.0,69,0.00,,---,0.00,VWS V14.01,2013-06-14 18:40:00,
2013-06-14 11:45:00,60.2,49.6,30.21,SW,233,4.0,8.0,68,0.00,,---,0.00,VWS V14.01,2013-06-14 18:45:00,
2013-06-14 11:50:00,60.2,49.2,30.21,SSW,209,0.0,8.0,67,0.00,,---,0.00,VWS V14.01,2013-06-14 18:50:00,
2013-06-14 11:55:00,60.2,49.6,30.21,East,101,2.0,8.0,68,0.00,,---,0.00,VWS V14.01,2013-06-14 18:55:00,
2013-06-14 12:00:00,60.2,49.2,30.21,SSE,168,5.0,8.0,67,0.00,,---,0.00,VWS V14.01,2013-06-14 19:00:00,
2013-06-14 12:05:00,60.1,49.5,30.21,East,98,0.0,5.0,68,0.00,,---,0.00,VWS V14.01,2013-06-14 19:05:00,
2013-06-14 12:10:00,60.4,49.4,30.21,SSE,150,0.0,5.0,67,0.00,,---,0.00,VWS V14.01,2013-06-14 19:10:00,
2013-06-14 12:16:00,60.9,49.9,30.21,WSW,243,0.0,5.0,67,0.00,,---,0.00,VWS V14.01,2013-06-14 19:16:00,
2013-06-14 12:21:00,61.0,49.6,30.20,South,187,0.0,5.0,66,0.00,,---,0.00,VWS V14.01,2013-06-14 19:21:00,
2013-06-14 12:26:00,61.0,49.6,30.20,WSW,248,0.0,8.0,66,0.00,,---,0.00,VWS V14.01,2013-06-14 19:26:00,
2013-06-14 12:31:00,60.9,49.5,30.20,SW,229,3.0,10.0,66,0.00,,---,0.00,VWS V14.01,2013-06-14 19:31:00,
2013-06-14 12:36:00,60.5,49.5,30.20,SW,227,7.0,10.0,67,0.00,,---,0.00,VWS V14.01,2013-06-14 19:36:00,
2013-06-14 12:41:00,60.3,49.7,30.20,SSW,200,3.0,10.0,68,0.00,,---,0.00,VWS V14.01,2013-06-14 19:41:00,
2013-06-14 12:46:00,60.5,49.9,30.20,SW,217,0.0,10.0,68,0.00,,---,0.00,VWS V14.01,2013-06-14 19:46:00,
2013-06-14 12:51:00,60.5,49.9,30.20,SW,219,0.0,10.0,68,0.00,,---,0.00,VWS V14.01,2013-06-14 19:51:00,
2013-06-14 12:56:00,60.5,49.9,30.20,SW,228,0.0,10.0,68,0.00,,---,0.00,VWS V14.01,2013-06-14 19:56:00,
2013-06-14 13:01:00,60.5,50.3,30.20,SW,214,1.0,5.0,69,0.00,,---,0.00,VWS V14.01,2013-06-14 20:01:00,
2013-06-14 13:06:00,60.6,49.6,30.20,South,171,0.0,5.0,67,0.00,,---,0.00,VWS V14.01,2013-06-14 20:06:00,
2013-06-14 13:11:00,60.8,49.8,30.20,SW,232,0.0,5.0,67,0.00,,---,0.00,VWS V14.01,2013-06-14 20:11:00,
2013-06-14 13:16:00,60.8,50.2,30.20,WSW,253,2.0,7.0,68,0.00,,---,0.00,VWS V14.01,2013-06-14 20:16:00,
2013-06-14 13:21:00,60.2,49.6,30.20,SW,225,6.0,12.0,68,0.00,,---,0.00,VWS V14.01,2013-06-14 20:21:00,
2013-06-14 13:26:00,59.7,49.5,30.20,WSW,249,5.0,12.0,69,0.00,,---,0.00,VWS V14.01,2013-06-14 20:26:00,
2013-06-14 13:31:00,59.6,49.4,30.20,SW,219,1.0,6.0,69,0.00,,---,0.00,VWS V14.01,2013-06-14 20:31:00,
2013-06-14 13:36:00,59.7,49.5,30.20,SW,232,6.0,12.0,69,0.00,,---,0.00,VWS V14.01,2013-06-14 20:36:00,
2013-06-14 13:41:00,60.0,49.8,30.20,SW,218,7.0,12.0,69,0.00,,---,0.00,VWS V14.01,2013-06-14 20:41:00,
2013-06-14 13:46:00,60.5,50.3,30.20,SW,228,0.0,12.0,69,0.00,,---,0.00,VWS V14.01,2013-06-14 20:46:00,
2013-06-14 13:52:00,60.7,49.7,30.20,WSW,238,10.0,12.0,67,0.00,,---,0.00,VWS V14.01,2013-06-14 20:52:00,
2013-06-14 13:57:00,60.6,49.6,30.19,SW,230,0.0,12.0,67,0.00,,---,0.00,VWS V14.01,2013-06-14 20:57:00,
2013-06-14 14:02:00,61.0,50.0,30.19,SW,221,2.0,2.0,67,0.00,,---,0.00,VWS V14.01,2013-06-14 21:02:00,
2013-06-14 14:07:00,61.7,50.2,30.19,SE,125,0.0,5.0,66,0.00,,---,0.00,VWS V14.01,2013-06-14 21:07:00,
2013-06-14 14:12:00,62.2,50.3,30.19,SW,230,0.0,5.0,65,0.00,,---,0.00,VWS V14.01,2013-06-14 21:12:00,
2013-06-14 14:17:00,62.7,50.4,30.19,SW,222,1.0,5.0,64,0.00,,---,0.00,VWS V14.01,2013-06-14 21:17:00,
2013-06-14 14:22:00,62.8,50.0,30.18,SE,132,1.0,7.0,63,0.00,,---,0.00,VWS V14.01,2013-06-14 21:22:00,
2013-06-14 14:27:00,64.1,50.8,30.19,SW,234,2.0,10.0,62,0.00,,---,0.00,VWS V14.01,2013-06-14 21:27:00,
2013-06-14 14:32:00,64.8,51.5,30.18,SW,219,5.0,5.0,62,0.00,,---,0.00,VWS V14.01,2013-06-14 21:32:00,
2013-06-14 14:37:00,64.9,50.7,30.18,WSW,242,5.0,11.0,60,0.00,,---,0.00,VWS V14.01,2013-06-14 21:37:00,
2013-06-14 14:42:00,64.6,50.9,30.18,SW,230,2.0,12.0,61,0.00,,---,0.00,VWS V14.01,2013-06-14 21:42:00,
2013-06-14 14:47:00,64.4,50.7,30.18,WSW,242,1.0,12.0,61,0.00,,---,0.00,VWS V14.01,2013-06-14 21:47:00,
2013-06-14 14:52:00,64.3,50.6,30.18,West,263,5.0,12.0,61,0.00,,---,0.00,VWS V14.01,2013-06-14 21:52:00,
2013-06-14 14:57:00,64.5,50.8,30.18,SW,214,0.0,12.0,61,0.00,,---,0.00,VWS V14.01,2013-06-14 21:57:00,
2013-06-14 15:02:00,64.7,51.0,30.18,NW,315,2.0,5.0,61,0.00,,---,0.00,VWS V14.01,2013-06-14 22:02:00,
2013-06-14 15:07:00,65.0,50.8,30.18,WSW,254,11.0,13.0,60,0.00,,---,0.00,VWS V14.01,2013-06-14 22:07:00,
2013-06-14 15:12:00,64.6,50.4,30.18,WSW,244,3.0,13.0,60,0.00,,---,0.00,VWS V14.01,2013-06-14 22:12:00,
2013-06-14 15:17:00,64.5,50.3,30.18,WSW,238,0.0,13.0,60,0.00,,---,0.00,VWS V14.01,2013-06-14 22:17:00,
2013-06-14 15:22:00,64.7,50.5,30.17,West,265,3.0,13.0,60,0.00,,---,0.00,VWS V14.01,2013-06-14 22:22:00,
2013-06-14 15:27:00,65.0,50.3,30.17,SSW,211,3.0,13.0,59,0.00,,---,0.00,VWS V14.01,2013-06-14 22:27:00,
2013-06-14 15:32:00,64.8,50.2,30.17,West,271,3.0,7.0,59,0.00,,---,0.00,VWS V14.01,2013-06-14 22:32:00,
2013-06-14 15:38:00,64.6,50.4,30.17,WSW,238,3.0,9.0,60,0.00,,---,0.00,VWS V14.01,2013-06-14 22:38:00,
2013-06-14 15:43:00,64.8,50.2,30.17,WSW,251,1.0,9.0,59,0.00,,---,0.00,VWS V14.01,2013-06-14 22:43:00,
2013-06-14 15:48:00,64.8,50.6,30.17,West,279,1.0,9.0,60,0.00,,---,0.00,VWS V14.01,2013-06-14 22:48:00,
2013-06-14 15:53:00,65.6,51.4,30.17,SSW,211,0.0,9.0,60,0.00,,---,0.00,VWS V14.01,2013-06-14 22:53:00,
2013-06-14 15:58:00,66.3,51.1,30.16,WNW,292,0.0,9.0,58,0.00,,---,0.00,VWS V14.01,2013-06-14 22:58:00,
2013-06-14 16:03:00,66.3,50.2,30.16,SW,227,3.0,6.0,56,0.00,,---,0.00,VWS V14.01,2013-06-14 23:03:00,
2013-06-14 16:08:00,65.9,50.2,30.16,SW,223,9.0,10.0,57,0.00,,---,0.00,VWS V14.01,2013-06-14 23:08:00,
2013-06-14 16:13:00,66.0,50.8,30.16,WSW,256,2.0,10.0,58,0.00,,---,0.00,VWS V14.01,2013-06-14 23:13:00,
2013-06-14 16:18:00,65.9,50.7,30.16,SSE,153,0.0,10.0,58,0.00,,---,0.00,VWS V14.01,2013-06-14 23:18:00,
2013-06-14 16:23:00,65.4,50.7,30.16,SW,215,0.0,10.0,59,0.00,,---,0.00,VWS V14.01,2013-06-14 23:23:00,
2013-06-14 16:28:00,65.8,51.5,30.15,SW,216,0.0,10.0,60,0.00,,---,0.00,VWS V14.01,2013-06-14 23:28:00,
2013-06-14 16:33:00,66.6,50.9,30.15,West,271,3.0,5.0,57,0.00,,---,0.00,VWS V14.01,2013-06-14 23:33:00,
2013-06-14 16:38:00,66.6,50.9,30.15,SW,226,1.0,5.0,57,0.00,,---,0.00,VWS V14.01,2013-06-14 23:38:00,
2013-06-14 16:43:00,67.2,51.5,30.15,WSW,242,4.0,5.0,57,0.00,,---,0.00,VWS V14.01,2013-06-14 23:43:00,
2013-06-14 16:48:00,67.2,51.0,30.14,WSW,257,3.0,7.0,56,0.00,,---,0.00,VWS V14.01,2013-06-14 23:48:00,
2013-06-14 16:53:00,66.4,50.7,30.14,SW,222,1.0,7.0,57,0.00,,---,0.00,VWS V14.01,2013-06-14 23:53:00,
2013-06-14 16:58:00,66.3,50.6,30.14,WNW,300,4.0,10.0,57,0.00,,---,0.00,VWS V14.01,2013-06-14 23:58:00,
2013-06-14 17:03:00,65.8,50.6,30.14,SSW,210,0.0,9.0,58,0.00,,---,0.00,VWS V14.01,2013-06-15 00:03:00,
2013-06-14 17:09:00,66.0,51.3,30.14,NW,307,5.0,9.0,59,0.00,,---,0.00,VWS V14.01,2013-06-15 00:09:00,
2013-06-14 17:14:00,66.2,51.0,30.13,WSW,257,3.0,9.0,58,0.00,,---,0.00,VWS V14.01,2013-06-15 00:14:00,
2013-06-14 17:19:00,66.3,50.6,30.13,SW,235,1.0,9.0,57,0.00,,---,0.00,VWS V14.01,2013-06-15 00:19:00,
2013-06-14 17:24:00,66.4,50.7,30.13,West,266,3.0,9.0,57,0.00,,---,0.00,VWS V14.01,2013-06-15 00:24:00,
2013-06-14 17:29:00,66.5,50.8,30.13,SW,220,1.0,9.0,57,0.00,,---,0.00,VWS V14.01,2013-06-15 00:29:00,
2013-06-14 17:34:00,66.9,50.7,30.12,South,181,2.0,3.0,56,0.00,,---,0.00,VWS V14.01,2013-06-15 00:34:00,
2013-06-14 17:39:00,66.7,50.5,30.12,WSW,248,3.0,7.0,56,0.00,,---,0.00,VWS V14.01,2013-06-15 00:39:00,
2013-06-14 17:44:00,66.7,51.5,30.11,West,265,0.0,7.0,58,0.00,,---,0.00,VWS V14.01,2013-06-15 00:44:00,
2013-06-14 17:49:00,67.3,50.6,30.11,West,272,3.0,7.0,55,0.00,,---,0.00,VWS V14.01,2013-06-15 00:49:00,
2013-06-14 17:54:00,66.8,51.1,30.11,West,272,0.0,7.0,57,0.00,,---,0.00,VWS V14.01,2013-06-15 00:54:00,
2013-06-14 17:59:00,66.5,51.3,30.11,NNW,333,0.0,7.0,58,0.00,,---,0.00,VWS V14.01,2013-06-15 00:59:00,
2013-06-14 18:04:00,66.7,51.0,30.11,NW,307,4.0,4.0,57,0.00,,---,0.00,VWS V14.01,2013-06-15 01:04:00,
2013-06-14 18:09:00,66.8,51.6,30.10,West,273,1.0,5.0,58,0.00,,---,0.00,VWS V14.01,2013-06-15 01:09:00,
2013-06-14 18:14:00,67.3,51.1,30.10,WSW,240,0.0,5.0,56,0.00,,---,0.00,VWS V14.01,2013-06-15 01:14:00,
2013-06-14 18:19:00,67.6,51.4,30.10,West,259,4.0,6.0,56,0.00,,---,0.00,VWS V14.01,2013-06-15 01:19:00,
2013-06-14 18:24:00,67.1,50.9,30.10,WNW,298,3.0,6.0,56,0.00,,---,0.00,VWS V14.01,2013-06-15 01:24:00,
2013-06-14 18:29:00,66.9,50.7,30.09,West,272,2.0,7.0,56,0.00,,---,0.00,VWS V14.01,2013-06-15 01:29:00,
2013-06-14 18:34:00,66.7,50.5,30.09,WNW,286,1.0,4.0,56,0.00,,---,0.00,VWS V14.01,2013-06-15 01:34:00,
2013-06-14 18:39:00,66.4,50.7,30.09,WNW,298,0.0,4.0,57,0.00,,---,0.00,VWS V14.01,2013-06-15 01:39:00,
2013-06-14 18:44:00,66.5,50.3,30.09,WSW,252,6.0,7.0,56,0.00,,---,0.00,VWS V14.01,2013-06-15 01:44:00,
2013-06-14 18:50:00,65.8,50.6,30.09,SW,234,0.0,7.0,58,0.00,,---,0.00,VWS V14.01,2013-06-15 01:50:00,
2013-06-14 18:55:00,65.6,50.0,30.09,West,270,2.0,7.0,57,0.00,,---,0.00,VWS V14.01,2013-06-15 01:55:00,
2013-06-14 19:00:00,65.1,50.4,30.09,WSW,238,4.0,7.0,59,0.00,,---,0.00,VWS V14.01,2013-06-15 02:00:00,
2013-06-14 19:05:00,65.0,50.3,30.09,SW,227,0.0,5.0,59,0.00,,---,0.00,VWS V14.01,2013-06-15 02:05:00,
2013-06-14 19:10:00,65.6,50.4,30.09,SW,229,1.0,5.0,58,0.00,,---,0.00,VWS V14.01,2013-06-15 02:10:00,
2013-06-14 19:15:00,65.6,50.4,30.09,West,268,3.0,5.0,58,0.00,,---,0.00,VWS V14.01,2013-06-15 02:15:00,
2013-06-14 19:20:00,65.2,50.1,30.08,WSW,249,0.0,6.0,58,0.00,,---,0.00,VWS V14.01,2013-06-15 02:20:00,
2013-06-14 19:25:00,65.0,50.3,30.08,SW,233,1.0,6.0,59,0.00,,---,0.00,VWS V14.01,2013-06-15 02:25:00,
2013-06-14 19:30:00,64.9,49.8,30.08,West,269,1.0,6.0,58,0.00,,---,0.00,VWS V14.01,2013-06-15 02:30:00,
2013-06-14 19:35:00,64.9,50.2,30.08,WSW,255,3.0,5.0,59,0.00,,---,0.00,VWS V14.01,2013-06-15 02:35:00,
2013-06-14 19:40:00,65.0,49.9,30.08,WSW,245,2.0,5.0,58,0.00,,---,0.00,VWS V14.01,2013-06-15 02:40:00,
2013-06-14 19:45:00,64.9,49.8,30.08,SW,230,0.0,5.0,58,0.00,,---,0.00,VWS V14.01,2013-06-15 02:45:00,
2013-06-14 19:50:00,64.6,50.0,30.08,West,270,2.0,5.0,59,0.00,,---,0.00,VWS V14.01,2013-06-15 02:50:00,
2013-06-14 19:55:00,64.5,50.3,30.08,WSW,254,4.0,5.0,60,0.00,,---,0.00,VWS V14.01,2013-06-15 02:55:00,
2013-06-14 20:00:00,64.3,49.7,30.08,NW,312,0.0,5.0,59,0.00,,---,0.00,VWS V14.01,2013-06-15 03:00:00,
2013-06-14 20:05:00,64.1,50.0,30.07,WSW,257,1.0,4.0,60,0.00,,---,0.00,VWS V14.01,2013-06-15 03:05:00,
2013-06-14 20:10:00,64.0,50.3,30.07,West,267,0.0,4.0,61,0.00,,---,0.00,VWS V14.01,2013-06-15 03:10:00,
2013-06-14 20:15:00,64.0,50.3,30.07,West,278,2.0,5.0,61,0.00,,---,0.00,VWS V14.01,2013-06-15 03:15:00,
2013-06-14 20:20:00,63.8,50.1,30.07,West,275,0.0,5.0,61,0.00,,---,0.00,VWS V14.01,2013-06-15 03:20:00,
2013-06-14 20:25:00,63.7,50.0,30.07,West,270,0.0,5.0,61,0.00,,---,0.00,VWS V14.01,2013-06-15 03:25:00,
2013-06-14 20:30:00,63.4,50.6,30.07,NW,313,2.0,2.0,63,0.00,,---,0.00,VWS V14.01,2013-06-15 03:30:00,
2013-06-14 20:35:00,62.7,50.4,30.07,WNW,302,0.0,4.0,64,0.00,,---,0.00,VWS V14.01,2013-06-15 03:35:00,
2013-06-14 20:41:00,62.1,49.8,30.07,NW,308,0.0,4.0,64,0.00,,---,0.00,VWS V14.01,2013-06-15 03:41:00,
2013-06-14 20:46:00,61.7,49.8,30.07,WNW,300,3.0,4.0,65,0.00,,---,0.00,VWS V14.01,2013-06-15 03:46:00,
2013-06-14 20:51:00,61.5,50.0,30.07,WNW,300,0.0,4.0,66,0.00,,---,0.00,VWS V14.01,2013-06-15 03:51:00,
2013-06-14 20:56:00,61.3,50.3,30.07,WNW,300,0.0,4.0,67,0.00,,---,0.00,VWS V14.01,2013-06-15 03:56:00,
2013-06-14 21:01:00,61.2,51.0,30.07,WNW,300,0.0,0.0,69,0.00,,---,0.00,VWS V14.01,2013-06-15 04:01:00,
2013-06-14 21:02:00,61.1,50.5,30.07,WNW,300,0.0,0.0,68,0.00,,---,0.00,VWS V14.01,2013-06-15 04:02:00,
2013-06-14 21:07:00,60.8,50.2,30.07,WNW,300,0.0,0.0,68,0.00,,---,0.00,VWS V14.01,2013-06-15 04:07:00,
2013-06-14 21:12:00,60.6,50.4,30.06,WNW,300,0.0,2.0,69,0.00,,---,0.00,VWS V14.01,2013-06-15 04:12:00,
2013-06-14 21:17:00,60.4,50.2,30.07,WNW,300,0.0,2.0,69,0.00,,---,0.00,VWS V14.01,2013-06-15 04:17:00,
2013-06-14 21:22:00,60.1,49.9,30.06,WNW,300,0.0,2.0,69,0.00,,---,0.00,VWS V14.01,2013-06-15 04:22:00,
2013-06-14 21:27:00,60.0,50.2,30.06,WNW,300,0.0,2.0,70,0.00,,---,0.00,VWS V14.01,2013-06-15 04:27:00,
2013-06-14 21:32:00,59.9,51.6,30.07,WNW,300,0.0,0.0,74,0.00,,---,0.00,VWS V14.01,2013-06-15 04:32:00,
2013-06-14 21:37:00,59.8,50.4,30.07,WNW,300,0.0,2.0,71,0.00,,---,0.00,VWS V14.01,2013-06-15 04:37:00,
2013-06-14 21:42:00,59.6,50.2,30.07,NW,314,0.0,3.0,71,0.00,,---,0.00,VWS V14.01,2013-06-15 04:42:00,
2013-06-14 21:47:00,59.5,50.5,30.07,WNW,302,0.0,4.0,72,0.00,,---,0.00,VWS V14.01,2013-06-15 04:47:00,
2013-06-14 21:52:00,59.3,50.3,30.06,WNW,288,2.0,4.0,72,0.00,,---,0.00,VWS V14.01,2013-06-15 04:52:00,
2013-06-14 21:57:00,59.0,50.0,30.07,NW,310,0.0,4.0,72,0.00,,---,0.00,VWS V14.01,2013-06-15 04:57:00,
2013-06-14 22:02:00,59.0,50.4,30.06,NW,310,0.0,1.0,73,0.00,,---,0.00,VWS V14.01,2013-06-15 05:02:00,
2013-06-14 22:07:00,58.7,50.5,30.06,WNW,303,3.0,3.0,74,0.00,,---,0.00,VWS V14.01,2013-06-15 05:07:00,
2013-06-14 22:12:00,58.4,50.2,30.06,WNW,300,0.0,4.0,74,0.00,,---,0.00,VWS V14.01,2013-06-15 05:12:00,
2013-06-14 22:18:00,58.2,50.3,30.06,NW,304,0.0,4.0,75,0.00,,---,0.00,VWS V14.01,2013-06-15 05:18:00,
2013-06-14 22:23:00,58.0,50.5,30.06,NW,304,0.0,4.0,76,0.00,,---,0.00,VWS V14.01,2013-06-15 05:23:00,
2013-06-14 22:28:00,57.8,51.0,30.06,NW,304,0.0,4.0,78,0.00,,---,0.00,VWS V14.01,2013-06-15 05:28:00,
2013-06-14 22:33:00,57.5,51.0,30.06,NW,304,0.0,2.0,79,0.00,,---,0.00,VWS V14.01,2013-06-15 05:33:00,
2013-06-14 22:38:00,57.2,51.1,30.06,NW,304,0.0,2.0,80,0.00,,---,0.00,VWS V14.01,2013-06-15 05:38:00,
2013-06-14 22:43:00,57.0,51.2,30.06,NW,304,0.0,2.0,81,0.00,,---,0.00,VWS V14.01,2013-06-15 05:43:00,
2013-06-14 22:48:00,56.8,51.0,30.06,NW,304,0.0,2.0,81,0.00,,---,0.00,VWS V14.01,2013-06-15 05:48:00,
2013-06-14 22:53:00,56.6,51.2,30.06,NW,306,0.0,3.0,82,0.00,,---,0.00,VWS V14.01,2013-06-15 05:53:00,
2013-06-14 22:58:00,56.4,51.3,30.05,NW,306,0.0,3.0,83,0.00,,---,0.00,VWS V14.01,2013-06-15 05:58:00,
2013-06-14 23:03:00,56.3,51.2,30.05,NW,306,0.0,1.0,83,0.00,,---,0.00,VWS V14.01,2013-06-15 06:03:00,
2013-06-14 23:08:00,56.2,51.4,30.05,NW,306,0.0,1.0,84,0.00,,---,0.00,VWS V14.01,2013-06-15 06:08:00,
2013-06-14 23:13:00,56.1,51.3,30.05,NW,309,0.0,3.0,84,0.00,,---,0.00,VWS V14.01,2013-06-15 06:13:00,
2013-06-14 23:18:00,56.0,51.6,30.05,NW,307,2.0,3.0,85,0.00,,---,0.00,VWS V14.01,2013-06-15 06:18:00,
2013-06-14 23:23:00,55.9,51.8,30.05,NW,324,0.0,4.0,86,0.00,,---,0.00,VWS V14.01,2013-06-15 06:23:00,
2013-06-14 23:28:00,55.7,51.6,30.05,NW,311,0.0,4.0,86,0.00,,---,0.00,VWS V14.01,2013-06-15 06:28:00,
2013-06-14 23:33:00,55.6,51.8,30.05,NW,307,0.0,1.0,87,0.00,,---,0.00,VWS V14.01,2013-06-15 06:33:00,
2013-06-14 23:38:00,55.5,51.7,30.05,NW,308,0.0,1.0,87,0.00,,---,0.00,VWS V14.01,2013-06-15 06:38:00,
2013-06-14 23:43:00,55.4,51.6,30.05,NW,307,0.0,1.0,87,0.00,,---,0.00,VWS V14.01,2013-06-15 06:43:00,
2013-06-14 23:48:00,55.1,51.3,30.05,NW,307,0.0,1.0,87,0.00,,---,0.00,VWS V14.01,2013-06-15 06:48:00,
2013-06-14 23:53:00,54.9,51.1,30.04,NW,308,0.0,1.0,87,0.00,,---,0.00,VWS V14.01,2013-06-15 06:53:00,
2013-06-14 23:59:00,54.7,51.2,30.04,NW,308,0.0,1.0,88,0.00,,---,0.00,VWS V14.01,2013-06-15 06:59:00,